OBJECT W, 57186

Orbit data source: Space-Track

You're viewing an uncataloged RSO

Recently launched and/or uncataloged RSOs may have evolving metadata. Metadata may include the following, but is not limited to: Owner, Manufacturer, Bus, Motor, and Mission.

OBJECT W, 57186 is a satellite in SSO that was launched on Tue, 27 Jun 2023 UTC via a SOYUZ-2-1B launch vehicle from the Vostochny Cosmodrome (VOSTO). Unknown objects in Earth's orbit typically refer to objects detected orbiting the Earth but have not yet been identified or cataloged. These objects could be anything from previously untracked satellites, spent rocket stages, debris from satellite collisions, or even natural meteoroids temporarily captured by Earth's gravity.

Loading next visibility...
Identifier
57186, 2023-091W
Orbit
SSO
Country
Flag of TBDTBD
Related business
Flag of RUOOO Special Technological Center (RU)
Manufacturer
STTS/SPBPU
Mission
Operational Commercial Technology
Bus & Motor
CUBESAT 3U, Unknown motor
Mass
3 kg wet, 3 kg dry
Launch date (UTC)
2023-06-27 (3 years ago)
Launch vehicle
SOYUZ-2-1B
Launch site
Vostochny Cosmodrome (VOSTO)
Object type
Unknown
Shape & HBR
Box, 0.2 m
Radar Cross Section
0.035 m², Medium (>0.1 m² and < 1m²)

Expand to show TLE details & history
Last TLE update: 5 hours ago

TLE from 5 hours ago
0 OBJECT W
1 57186U 23091W   26220.19310900  .00004006  00000-0  14164-3 0  9996
2 57186  97.5116 286.9841 0016129 268.3702  91.5690 15.29665725172405
Epoch: 2026-08-08T04:38Z
TLE epoch observation values (Epoch: 2026-08-08T04:38:04.617Z)
Latitude
-0.00009°
Longitude
-99.2431°
Altitude
480.232 km
Speed
7.625 km/s
True Right ascension
19h 07m 56s
True Declination
0° 00' 00"
Sunlit
Object was in full shadow at epoch
Visualization orbit readout
Latitude
Unknown
Longitude
Unknown
Altitude
Unknown
Speed
Unknown
Apparent Right ascension
Unknown
Apparent Declination
Unknown
Sunlit
N/A
Visualization observer readout
Local Sidereal Time
00:08:42
Azimuth
Unknown
Elevation
Unknown
Doppler factor
Unknown
Orbital elements
Apogee altitude
484.82 km
Perigee altitude
462.717 km
Semi-major axis
6,851.905 km
Eccentricity
0.00161
Inclination
97.5116°
RAAN
286.9841°
Arg. of periapsis
268.3702°
True anomaly
91.75374°
Mean anomaly
91.569°
Eccentric anomaly
91.66137°
Mean motion
3.82672 °/min
Orbital period
94.08 mins
BSTAR
0.00014164
Loading maneuver chart data...
Computing Atmospheric mass density...
Loading historical data...
Loading historical data...
Loading historical data...
Loading historical data...
Loading historical data...
Loading historical data...
Loading historical data...

Documentation

Showing up to 5 results
|